Radiation Dose at Monitoring Post of Fukushima Daini Nuclear Power Station
Date,Time,MP-1(microSv/h),MP-2(microSv/h),MP-3(microSv/h),MP-4(microSv/h),MP-5(microSv/h),MP-6(microSv/h),MP-7(microSv/h),Wind Direction,Wind Velocity(m/s),Rain
2024/06/02,00:00,0.142,0.125,0.202,0.190,0.203,0.112,0.072,north-northwest,5.8,No
2024/06/02,00:10,0.142,0.126,0.201,0.190,0.201,0.113,0.072,north-northwest,6.0,No
2024/06/02,00:20,0.142,0.125,0.202,0.189,0.203,0.112,0.072,northwest,5.8,No
2024/06/02,00:30,0.142,0.126,0.201,0.189,0.202,0.112,0.073,northwest,5.4,No
2024/06/02,00:40,0.142,0.125,0.202,0.188,0.203,0.111,0.073,north-northwest,4.7,Yes
2024/06/02,00:50,0.142,0.126,0.201,0.191,0.202,0.112,0.072,north-northwest,4.8,Yes
2024/06/02,01:00,0.141,0.125,0.202,0.189,0.202,0.112,0.072,north-northwest,4.9,Yes
2024/06/02,01:10,0.143,0.124,0.200,0.190,0.201,0.111,0.073,north-northwest,4.8,Yes
2024/06/02,01:20,0.141,0.126,0.202,0.188,0.203,0.112,0.072,north-northwest,5.5,No
2024/06/02,01:30,0.142,0.126,0.201,0.190,0.202,0.113,0.073,north-northwest,5.6,Yes
2024/06/02,01:40,0.142,0.126,0.201,0.189,0.203,0.112,0.073,north-northwest,5.3,Yes
2024/06/02,01:50,0.143,0.125,0.201,0.189,0.202,0.112,0.073,northwest,4.4,Yes
2024/06/02,02:00,0.142,0.126,0.202,0.189,0.203,0.111,0.073,north-northwest,4.6,Yes
2024/06/02,02:10,0.142,0.125,0.202,0.190,0.202,0.112,0.073,north-northwest,4.0,No
2024/06/02,02:20,0.143,0.126,0.201,0.188,0.203,0.112,0.073,north-northwest,3.9,Yes
2024/06/02,02:30,0.142,0.125,0.203,0.190,0.202,0.112,0.073,northwest,3.9,No
2024/06/02,02:40,0.141,0.126,0.200,0.189,0.203,0.112,0.073,north-northwest,3.9,Yes
2024/06/02,02:50,0.142,0.126,0.203,0.191,0.201,0.112,0.073,north-northwest,4.3,Yes
2024/06/02,03:00,0.142,0.126,0.201,0.189,0.203,0.112,0.073,north-northwest,4.8,No
2024/06/02,03:10,0.142,0.126,0.202,0.190,0.202,0.112,0.072,northwest,4.8,Yes
2024/06/02,03:20,0.143,0.125,0.202,0.190,0.204,0.113,0.073,northwest,5.0,Yes
2024/06/02,03:30,0.143,0.126,0.202,0.191,0.202,0.112,0.072,north-northwest,4.2,Yes
2024/06/02,03:40,0.142,0.126,0.202,0.190,0.205,0.112,0.073,north-northwest,4.1,Yes
2024/06/02,03:50,0.142,0.126,0.202,0.190,0.202,0.113,0.072,north-northwest,4.7,Yes
2024/06/02,04:00,0.142,0.125,0.202,0.191,0.203,0.112,0.073,north-northwest,4.5,Yes
2024/06/02,04:10,0.142,0.126,0.202,0.191,0.202,0.113,0.073,north-northwest,4.1,No
2024/06/02,04:20,0.142,0.126,0.202,0.189,0.203,0.112,0.072,northwest,4.4,No
2024/06/02,04:30,0.143,0.126,0.202,0.191,0.204,0.112,0.073,north-northwest,5.0,No
2024/06/02,04:40,0.143,0.125,0.203,0.190,0.203,0.112,0.073,north-northwest,2.9,No
2024/06/02,04:50,0.143,0.127,0.201,0.189,0.201,0.113,0.073,north-northwest,5.0,Yes
2024/06/02,05:00,0.143,0.126,0.203,0.191,0.205,0.112,0.073,north-northwest,5.4,Yes
2024/06/02,05:10,0.142,0.126,0.201,0.189,0.203,0.113,0.073,north-northwest,5.3,No
2024/06/02,05:20,0.143,0.127,0.202,0.191,0.204,0.112,0.074,north-northwest,4.8,No
2024/06/02,05:30,0.142,0.125,0.202,0.189,0.203,0.113,0.072,north-northwest,4.2,No
2024/06/02,05:40,0.143,0.127,0.202,0.190,0.203,0.113,0.072,north-northwest,3.8,No
2024/06/02,05:50,0.142,0.125,0.202,0.189,0.203,0.113,0.074,north-northwest,3.4,No
2024/06/02,06:00,0.144,0.126,0.201,0.190,0.203,0.113,0.073,north,4.1,No
2024/06/02,06:10,0.142,0.125,0.202,0.188,0.202,0.112,0.073,north-northwest,3.3,No
2024/06/02,06:20,0.142,0.126,0.201,0.190,0.204,0.113,0.072,north-northwest,4.0,No
2024/06/02,06:30,0.141,0.126,0.202,0.189,0.201,0.112,0.072,north-northwest,3.2,No
2024/06/02,06:40,0.142,0.125,0.200,0.189,0.203,0.111,0.073,northwest,2.7,No
2024/06/02,06:50,0.142,0.126,0.200,0.188,0.201,0.112,0.073,north-northwest,2.8,No
2024/06/02,07:00,0.141,0.126,0.200,0.191,0.202,0.112,0.072,north-northwest,3.2,No
2024/06/02,07:10,0.142,0.126,0.201,0.189,0.203,0.111,0.073,northwest,3.0,No
2024/06/02,07:20,0.141,0.126,0.202,0.188,0.199,0.112,0.072,northwest,2.9,No
2024/06/02,07:30,0.141,0.125,0.201,0.190,0.203,0.112,0.072,north-northwest,2.8,No
2024/06/02,07:40,0.142,0.127,0.199,0.188,0.202,0.112,0.072,north-northwest,2.1,No
2024/06/02,07:50,0.142,0.126,0.201,0.188,0.200,0.112,0.072,north-northeast,2.4,No
2024/06/02,08:00,0.139,0.124,0.201,0.190,0.203,0.112,0.072,north-northeast,3.3,No
2024/06/02,08:10,0.141,0.124,0.201,0.188,0.200,0.112,0.072,north-northeast,3.7,No
2024/06/02,08:20,0.141,0.126,0.199,0.187,0.200,0.112,0.072,north,3.4,No
2024/06/02,08:30,0.142,0.125,0.198,0.186,0.199,0.112,0.072,north-northeast,4.4,No
2024/06/02,08:40,0.141,0.125,0.199,0.187,0.203,0.112,0.072,north-northeast,3.4,No
2024/06/02,08:50,0.140,0.125,0.199,0.190,0.203,0.112,0.072,north-northeast,2.5,No
2024/06/02,09:00,0.142,0.125,0.200,0.189,0.200,0.111,0.072,north-northeast,3.1,No
2024/06/02,09:10,0.142,0.126,0.202,0.188,0.202,0.112,0.072,north-northeast,3.7,No
2024/06/02,09:20,0.140,0.125,0.203,0.188,0.204,0.112,0.072,north-northeast,1.5,No
2024/06/02,09:30,0.141,0.125,0.201,0.187,0.202,0.111,0.071,north-northeast,2.9,No
2024/06/02,09:40,0.143,0.126,0.200,0.189,0.200,0.111,0.072,north-northeast,3.6,No
2024/06/02,09:50,0.143,0.126,0.199,0.190,0.202,0.111,0.071,north-northeast,4.0,No
2024/06/02,10:00,0.140,0.125,0.199,0.190,0.202,0.112,0.072,north-northeast,3.6,No
2024/06/02,10:10,0.142,0.126,0.199,0.189,0.202,0.112,0.073,north-northeast,3.6,No
2024/06/02,10:20,0.142,0.126,0.202,0.188,0.200,0.112,0.072,northeast,4.2,No
2024/06/02,10:30,0.141,0.126,0.203,0.189,0.200,0.112,0.072,northeast,4.2,Yes
2024/06/02,10:40,0.141,0.125,0.202,0.192,0.203,0.111,0.071,northeast,4.1,Yes
2024/06/02,10:50,0.141,0.125,0.200,0.192,0.201,0.112,0.072,northeast,4.7,No
2024/06/02,11:00,0.142,0.126,0.200,0.191,0.202,0.112,0.072,northeast,4.1,No
2024/06/02,11:10,0.141,0.126,0.200,0.189,0.200,0.111,0.073,northeast,3.5,No
2024/06/02,11:20,0.141,0.124,0.201,0.188,0.200,0.112,0.072,northeast,4.2,No
2024/06/02,11:30,0.141,0.126,0.200,0.188,0.200,0.112,0.072,northeast,4.3,No
2024/06/02,11:40,0.143,0.126,0.204,0.191,0.204,0.111,0.072,northeast,3.2,No
2024/06/02,11:50,0.142,0.126,0.203,0.190,0.203,0.112,0.073,northeast,3.4,No
2024/06/02,12:00,0.141,0.126,0.201,0.191,0.202,0.111,0.072,north-northeast,2.9,No
2024/06/02,12:10,0.142,0.127,0.200,0.189,0.201,0.112,0.072,north-northeast,3.3,No
2024/06/02,12:20,0.143,0.127,0.202,0.192,0.205,0.113,0.072,north-northeast,2.4,No
2024/06/02,12:30,0.143,0.126,0.203,0.190,0.202,0.112,0.073,northeast,2.9,No
2024/06/02,12:40,0.140,0.125,0.203,0.190,0.201,0.113,0.072,northeast,2.1,No
2024/06/02,12:50,0.142,0.127,0.201,0.189,0.200,0.112,0.072,northeast,2.9,No
2024/06/02,13:00,0.142,0.127,0.200,0.190,0.203,0.112,0.073,east-northeast,3.1,No
2024/06/02,13:10,0.142,0.125,0.203,0.191,0.203,0.112,0.073,east-northeast,4.4,No
2024/06/02,13:20,0.141,0.126,0.204,0.191,0.202,0.112,0.072,east-northeast,3.6,No
2024/06/02,13:30,0.143,0.127,0.202,0.190,0.202,0.112,0.072,northeast,3.3,No
2024/06/02,13:40,0.142,0.126,0.203,0.192,0.205,0.112,0.073,northeast,3.2,No
2024/06/02,13:50,0.141,0.126,0.204,0.192,0.203,0.112,0.072,northeast,2.7,No
2024/06/02,14:00,0.142,0.127,0.203,0.190,0.202,0.112,0.072,east-northeast,3.4,No
2024/06/02,14:10,0.143,0.126,0.201,0.191,0.205,0.113,0.073,northeast,3.6,No
2024/06/02,14:20,0.141,0.127,0.204,0.192,0.203,0.112,0.072,northeast,2.5,No
2024/06/02,14:30,0.143,0.126,0.202,0.189,0.202,0.112,0.072,northeast,2.1,No
2024/06/02,14:40,0.144,0.126,0.203,0.191,0.204,0.112,0.072,northeast,2.3,No
2024/06/02,14:50,0.142,0.127,0.203,0.192,0.202,0.111,0.073,northeast,2.2,No
2024/06/02,15:00,0.143,0.125,0.201,0.191,0.204,0.113,0.072,north-northeast,1.3,No
2024/06/02,15:10,0.143,0.127,0.203,0.192,0.204,0.112,0.072,northeast,1.2,No
2024/06/02,15:20,0.142,0.125,0.204,0.191,0.202,0.112,0.072,northeast,1.6,No
2024/06/02,15:30,0.144,0.126,0.201,0.190,0.204,0.111,0.073,north,1.3,No
2024/06/02,15:40,0.142,0.127,0.203,0.192,0.201,0.113,0.071,northeast,0.8,No
2024/06/02,15:50,0.143,0.125,0.202,0.191,0.203,0.112,0.073,northeast,0.8,No
2024/06/02,16:00,0.142,0.127,0.204,0.192,0.204,0.113,0.073,north-northeast,0.8,Yes
2024/06/02,16:10,0.141,0.126,0.203,0.192,0.202,0.112,0.073,north,1.5,Yes
2024/06/02,16:20,0.144,0.125,0.201,0.190,0.203,0.112,0.073,north,0.9,Yes
2024/06/02,16:30,0.142,0.127,0.203,0.193,0.202,0.113,0.073,east-northeast,1.5,Yes
2024/06/02,16:40,0.143,0.125,0.202,0.191,0.203,0.112,0.073,east,0.9,No
2024/06/02,16:50,0.143,0.127,0.203,0.192,0.204,0.113,0.073,east-southeast,1.3,Yes
2024/06/02,17:00,0.143,0.126,0.204,0.193,0.202,0.114,0.073,northeast,0.8,Yes
2024/06/02,17:10,0.145,0.127,0.203,0.191,0.204,0.113,0.074,north-northeast,1.0,Yes
2024/06/02,17:20,0.143,0.127,0.204,0.193,0.203,0.113,0.073,northeast,1.1,Yes
2024/06/02,17:30,0.144,0.126,0.204,0.192,0.203,0.112,0.073,northeast,0.8,Yes
2024/06/02,17:40,0.143,0.128,0.205,0.193,0.205,0.113,0.074,northeast,0.6,Yes
2024/06/02,17:50,0.143,0.127,0.203,0.192,0.202,0.113,0.074,north,0.7,Yes
2024/06/02,18:00,0.144,0.128,0.204,0.191,0.206,0.113,0.074,north-northeast,0.8,Yes
2024/06/02,18:10,0.143,0.127,0.203,0.194,0.203,0.113,0.074,north,1.3,Yes
2024/06/02,18:20,0.144,0.128,0.205,0.192,0.206,0.114,0.075,north,2.0,Yes
2024/06/02,18:30,0.144,0.128,0.205,0.194,0.204,0.114,0.073,north,2.1,Yes
2024/06/02,18:40,0.144,0.128,0.205,0.192,0.205,0.113,0.074,north-northeast,2.6,Yes
2024/06/02,18:50,0.143,0.127,0.205,0.193,0.203,0.115,0.074,northeast,2.7,Yes
2024/06/02,19:00,0.144,0.128,0.205,0.192,0.205,0.114,0.075,north,2.3,Yes
2024/06/02,19:10,0.144,0.127,0.203,0.193,0.203,0.114,0.074,north-northwest,2.2,Yes
2024/06/02,19:20,0.143,0.129,0.204,0.191,0.204,0.114,0.074,north-northwest,2.0,Yes
2024/06/02,19:30,0.144,0.127,0.204,0.194,0.203,0.113,0.074,north-northwest,2.6,Yes
2024/06/02,19:40,0.145,0.129,0.205,0.194,0.203,0.114,0.075,north-northwest,2.8,Yes
2024/06/02,19:50,0.145,0.128,0.205,0.193,0.205,0.114,0.075,northwest,2.6,Yes
2024/06/02,20:00,0.144,0.128,0.205,0.193,0.205,0.115,0.075,north,3.3,Yes
2024/06/02,20:10,0.145,0.129,0.204,0.194,0.205,0.115,0.075,north-northwest,3.3,Yes
2024/06/02,20:20,0.145,0.130,0.205,0.193,0.203,0.115,0.075,north-northwest,2.9,Yes
2024/06/02,20:30,0.145,0.128,0.204,0.191,0.204,0.113,0.074,north-northwest,3.7,Yes
2024/06/02,20:40,0.143,0.128,0.204,0.192,0.203,0.114,0.075,north-northwest,3.5,Yes
2024/06/02,20:50,0.144,0.128,0.204,0.192,0.205,0.114,0.075,northwest,3.9,Yes
2024/06/02,21:00,0.144,0.128,0.206,0.191,0.203,0.114,0.075,north,2.5,Yes
2024/06/02,21:10,0.144,0.128,0.204,0.192,0.204,0.115,0.074,north,2.4,Yes
2024/06/02,21:20,0.143,0.127,0.204,0.191,0.201,0.114,0.074,north,1.8,Yes
2024/06/02,21:30,0.144,0.126,0.202,0.191,0.205,0.113,0.074,east-northeast,2.1,Yes
2024/06/02,21:40,0.144,0.127,0.203,0.191,0.202,0.113,0.075,east,4.0,Yes
2024/06/02,21:50,0.144,0.128,0.202,0.189,0.205,0.115,0.075,east-northeast,2.0,Yes
2024/06/02,22:00,0.144,0.128,0.203,0.192,0.201,0.114,0.075,southeast,1.7,Yes
2024/06/02,22:10,0.145,0.128,0.202,0.190,0.204,0.116,0.076,south-southeast,2.3,Yes
2024/06/02,22:20,0.144,0.129,0.204,0.192,0.202,0.118,0.079,south-southeast,1.0,Yes
2024/06/02,22:30,0.145,0.129,0.203,0.192,0.204,0.118,0.079,south-southeast,2.1,Yes
2024/06/02,22:40,0.145,0.129,0.204,0.193,0.203,0.119,0.081,south,1.4,Yes
2024/06/02,22:50,0.147,0.131,0.205,0.193,0.206,0.120,0.081,-,CALM,Yes
2024/06/02,23:00,0.147,0.130,0.205,0.194,0.206,0.120,0.081,northwest,1.0,Yes
2024/06/02,23:10,0.148,0.130,0.206,0.195,0.206,0.120,0.080,north-northeast,0.7,Yes
2024/06/02,23:20,0.147,0.131,0.206,0.194,0.206,0.120,0.081,northeast,2.2,Yes
2024/06/02,23:30,0.147,0.132,0.206,0.194,0.207,0.119,0.080,north-northwest,2.9,Yes
2024/06/02,23:40,0.145,0.129,0.204,0.193,0.205,0.118,0.079,north-northwest,4.8,Yes
2024/06/02,23:50,0.146,0.131,0.205,0.193,0.206,0.116,0.077,north-northwest,4.6,Yes
